Plymouth, NH

3:34 PM EDT on August 20, 2017 (GMT -0400)
Plymouth

Weather History for K1P1 - November, 2012

Change the Weather History Date:

Monday, November 19, 2012

  Actual Average (KLCI) Record (KLCI)
Temperature  
Mean Temperature 32 °F -  
Max Temperature 47 °F 44 °F 63 °F (1987)
Min Temperature 16 °F 27 °F 19 °F (2005)
Degree Days  
Heating Degree Days 34    
Moisture  
Dew Point 20 °F    
Average Humidity 79    
Maximum Humidity 97    
Minimum Humidity 28    
Precipitation  
Precipitation 0.00 in - - ()
Sea Level Pressure  
Sea Level Pressure 30.46 in    
Wind  
Wind Speed 0 mph (East)    
Max Wind Speed 4 mph    
Max Gust Speed -    
Visibility 9 miles    
Events      
Averages and records for this station are not official NWS values.
T = Trace of Precipitation, MM = Missing Value Source: NWS Daily Summary

Daily Weather History Graph

Daily Weather History Graph

Search for Another Location

Airport or City:

Trip Planner

Search our weather history database for the weather conditions in past years. The results will help you decide how hot, cold, wet, or windy it might be!

Date:

Astronomy

Nov. 19, 2012 Rise Set
Actual Time 6:47 AM EST 4:17 PM EST
Civil Twilight 6:15 AM EST 4:48 PM EST
Nautical Twilight 5:40 AM EST 5:23 PM EST
Astronomical Twilight 5:06 AM EST 5:58 PM EST
Moon 11:44 AM EST (11/19) 10:46 PM EST (11/19)
Length of Visible Light 10h 33m
Length of Day
9h 30m
Waxing Crescent, 40% of the Moon is Illuminated
Nov 19
Waxing Crescent
Nov 20
First Quarter
Nov 28
Full
Dec 6
Last Quarter
Dec 13
New

Hourly Weather History & Observations

Time (EST) Temp. Dew Point Humidity Pressure Visibility Wind Dir Wind Speed Gust Speed Precip Events Conditions
12:15 AM 21.7 °F 20.8 °F 96% 30.64 in 10.0 mi Calm Calm - N/A   Clear
12:55 AM 21.7 °F 21.0 °F 97% 30.63 in 7.0 mi Calm Calm - N/A   Clear
1:15 AM 21.6 °F 20.7 °F 96% 30.62 in 7.0 mi Calm Calm - N/A   Clear
1:55 AM 20.7 °F 19.6 °F 96% 30.62 in 10.0 mi Calm Calm - N/A   Clear
2:15 AM 19.8 °F 18.7 °F 96% 30.62 in 10.0 mi Calm Calm - N/A   Clear
2:35 AM 20.1 °F 19.0 °F 96% 30.62 in 7.0 mi Calm Calm - N/A   Clear
2:55 AM 19.4 °F 18.5 °F 96% 30.61 in 7.0 mi Calm Calm - N/A   Clear
3:15 AM 19.2 °F 18.1 °F 96% 30.60 in 7.0 mi Calm Calm - N/A   Clear
3:35 AM 18.7 °F 17.6 °F 96% 30.60 in 7.0 mi Calm Calm - N/A   Clear
3:55 AM 19.2 °F 18.1 °F 96% 30.60 in 7.0 mi Calm Calm - N/A   Clear
4:15 AM 18.5 °F 17.6 °F 96% 30.60 in 10.0 mi Calm Calm - N/A   Clear
4:35 AM 18.3 °F 17.2 °F 96% 30.60 in 7.0 mi Calm Calm - N/A   Clear
4:55 AM 18.0 °F 16.7 °F 95% 30.60 in 10.0 mi Calm Calm - N/A   Clear
5:15 AM 17.6 °F 16.3 °F 95% 30.59 in 10.0 mi Calm Calm - N/A   Clear
5:35 AM 17.4 °F 16.2 °F 95% 30.59 in 7.0 mi Calm Calm - N/A   Clear
5:55 AM 17.4 °F 16.2 °F 95% 30.59 in 7.0 mi Calm Calm - N/A   Clear
6:15 AM 17.2 °F 15.8 °F 94% 30.59 in 10.0 mi Calm Calm - N/A   Clear
6:35 AM 16.5 °F 15.3 °F 95% 30.58 in 10.0 mi Calm Calm - N/A   Clear
6:55 AM 17.1 °F 15.8 °F 95% 30.59 in 10.0 mi Calm Calm - N/A   Clear
7:15 AM 16.5 °F 15.1 °F 94% 30.59 in 10.0 mi Calm Calm - N/A   Clear
7:35 AM 17.4 °F 16.2 °F 95% 30.58 in 7.0 mi Calm Calm - N/A   Clear
7:55 AM 19.2 °F 18.1 °F 96% 30.57 in 7.0 mi Calm Calm - N/A   Clear
8:15 AM 21.4 °F 20.3 °F 96% 30.57 in 7.0 mi Calm Calm - N/A   Clear
8:35 AM 22.8 °F 21.9 °F 96% 30.55 in 10.0 mi Calm Calm - N/A   Clear
8:55 AM 24.6 °F 23.7 °F 96% 30.55 in 10.0 mi Calm Calm - N/A   Clear
9:15 AM 25.5 °F 24.6 °F 96% 30.54 in 10.0 mi Calm Calm - N/A   Clear
9:55 AM 29.3 °F 25.3 °F 85% 30.53 in 10.0 mi Calm Calm - N/A   Clear
10:15 AM 31.5 °F 26.4 °F 82% 30.52 in 10.0 mi Calm Calm - N/A   Clear
10:55 AM 34.7 °F 24.6 °F 67% 30.49 in 10.0 mi Calm Calm - N/A   Clear
11:15 AM 36.5 °F 23.0 °F 58% 30.47 in 10.0 mi Calm Calm - N/A   Clear
11:35 AM 38.7 °F 21.9 °F 51% 30.46 in 10.0 mi Calm Calm - N/A   Clear
11:55 AM 41.2 °F 16.3 °F 37% 30.44 in 10.0 mi Calm Calm - N/A   Clear
12:15 PM 42.6 °F 15.1 °F 33% 30.44 in 10.0 mi Calm Calm - N/A   Clear
12:35 PM 43.9 °F 17.2 °F 34% 30.43 in 10.0 mi Calm Calm - N/A   Clear
12:55 PM 45.0 °F 18.0 °F 34% 30.42 in 10.0 mi Calm Calm - N/A   Clear
1:15 PM 45.5 °F 16.0 °F 31% 30.41 in 7.0 mi Calm Calm - N/A   Clear
1:35 PM 47.1 °F 17.1 °F 30% 30.40 in 10.0 mi East 3.5 mph - N/A   Clear
1:55 PM 47.5 °F 16.3 °F 29% 30.39 in 10.0 mi Calm Calm - N/A   Clear
2:15 PM 47.1 °F 16.5 °F 29% 30.38 in 10.0 mi Calm Calm - N/A   Clear
2:35 PM 47.3 °F 15.8 °F 28% 30.37 in 10.0 mi Calm Calm - N/A   Clear
2:55 PM 47.1 °F 16.3 °F 29% 30.37 in 10.0 mi Calm Calm - N/A   Clear
3:15 PM 44.8 °F 25.0 °F 46% 30.37 in 10.0 mi Calm Calm - N/A   Clear
3:35 PM 38.7 °F 20.8 °F 49% 30.37 in 10.0 mi Calm Calm - N/A   Clear
3:55 PM 36.3 °F 21.6 °F 55% 30.37 in 10.0 mi Calm Calm - N/A   Clear
4:15 PM 33.3 °F 22.8 °F 66% 30.36 in 10.0 mi Calm Calm - N/A   Clear
4:35 PM 32.0 °F 24.4 °F 74% 30.36 in 10.0 mi Calm Calm - N/A   Clear
4:55 PM 30.0 °F 23.5 °F 77% 30.36 in 10.0 mi Calm Calm - N/A   Clear
5:15 PM 30.4 °F 23.7 °F 76% 30.36 in 10.0 mi Calm Calm - N/A   Clear
5:35 PM 28.8 °F 24.4 °F 84% 30.37 in 10.0 mi Calm Calm - N/A   Clear
5:55 PM 28.0 °F 23.7 °F 84% 30.37 in 10.0 mi Calm Calm - N/A   Clear
6:15 PM 27.5 °F 23.4 °F 84% 30.36 in 10.0 mi Calm Calm - N/A   Clear
6:35 PM 27.5 °F 22.8 °F 83% 30.36 in 10.0 mi Calm Calm - N/A   Clear
6:55 PM 27.0 °F 23.0 °F 85% 30.35 in 10.0 mi Calm Calm - N/A   Clear
7:35 PM 25.5 °F 22.6 °F 89% 30.35 in 10.0 mi Calm Calm - N/A   Clear
7:55 PM 25.7 °F 22.6 °F 88% 30.34 in 10.0 mi Calm Calm - N/A   Clear
8:15 PM 25.0 °F 22.8 °F 91% 30.34 in 10.0 mi Calm Calm - N/A   Clear
8:35 PM 24.8 °F 22.5 °F 91% 30.34 in 10.0 mi Calm Calm - N/A   Clear
8:55 PM 23.9 °F 22.1 °F 93% 30.33 in 10.0 mi Calm Calm - N/A   Clear
9:15 PM 23.4 °F 21.9 °F 94% 30.32 in 10.0 mi Calm Calm - N/A   Clear
9:35 PM 23.4 °F 21.7 °F 94% 30.32 in 10.0 mi Calm Calm - N/A   Clear
9:55 PM 23.2 °F 21.9 °F 95% 30.32 in 10.0 mi Calm Calm - N/A   Clear
10:15 PM 22.8 °F 21.4 °F 94% 30.31 in 10.0 mi Calm Calm - N/A   Clear
10:35 PM 22.1 °F 21.4 °F 97% 30.30 in 10.0 mi Calm Calm - N/A   Clear
10:55 PM 22.1 °F 21.2 °F 96% 30.30 in 10.0 mi Calm Calm - N/A   Clear
11:15 PM 21.6 °F 20.7 °F 96% 30.29 in 7.0 mi Calm Calm - N/A   Clear
11:55 PM 20.3 °F 19.4 °F 96% 30.29 in 10.0 mi Calm Calm - N/A   Clear